PAT193 KRME-BGTL

Flight info

Callsign PAT193
Flight time 4h 0m
Altitude 34000
Route WAYGO Q937 TULEG DCT IGSEB DCT SANIN DCT AGNOB DCT NOPOT DCT SENLU/N0471F350 DCT OTONA DCT YVO Q883 UKSIL/N0484F370 Q883 TEXEX DCT YPX DCT 62N077W DCT YTE/N0474F390 DCT 66N075W 67N074W 69N072W DCT 7071N DCT 72N070W/M082F390 74N069W DCT THT
Aircraft CL60/M-SBDE1E2E3FGHIJ1J4J5J7M3RWXYZ/LB1V1D1

Departure

Time 2026-05-06 01:14
Airport Griffiss International Airport (KRME)

Arrival

Time 2026-05-06 05:14
Airport Pituffik Space Base (BGTL)
Time Latitude Longitude Altitude Speed Heading
2026-05-06 01:03 43.22669 -75.41276 481 ft 0 kts 289°
2026-05-06 01:10 43.22671 -75.41303 480 ft 12 kts 271°
2026-05-06 01:10 43.22759 -75.41383 482 ft 14 kts 351°
2026-05-06 01:10 43.22872 -75.41389 483 ft 12 kts 356°
2026-05-06 01:11 43.22974 -75.41352 483 ft 14 kts 68°
2026-05-06 01:11 43.22980 -75.41170 483 ft 17 kts 90°
2026-05-06 01:11 43.22980 -75.40956 483 ft 20 kts 90°
2026-05-06 01:11 43.22982 -75.40735 483 ft 13 kts 93°
2026-05-06 01:12 43.22975 -75.40569 483 ft 16 kts 116°
2026-05-06 01:12 43.22878 -75.40421 481 ft 20 kts 134°
2026-05-06 01:12 43.22756 -75.40247 480 ft 22 kts 135°
2026-05-06 01:12 43.22622 -75.40062 480 ft 24 kts 134°
2026-05-06 01:13 43.22472 -75.39872 479 ft 26 kts 129°
2026-05-06 01:13 43.22327 -75.39639 477 ft 29 kts 133°
2026-05-06 01:13 43.22165 -75.39407 475 ft 15 kts 132°
2026-05-06 01:13 43.22195 -75.39262 478 ft 15 kts 43°
2026-05-06 01:14 43.22434 -75.39369 490 ft 69 kts 315°
2026-05-06 01:14 43.23090 -75.40303 486 ft 159 kts 313°
2026-05-06 01:14 43.23949 -75.41641 1108 ft 179 kts 310°
2026-05-06 01:15 43.24629 -75.43206 1862 ft 162 kts 287°
2026-05-06 01:15 43.25104 -75.44769 2342 ft 155 kts 298°
2026-05-06 01:15 43.25703 -75.46257 2745 ft 161 kts 296°
2026-05-06 01:15 43.26384 -75.48158 2862 ft 209 kts 296°
2026-05-06 01:16 43.27091 -75.50131 3526 ft 173 kts 295°
2026-05-06 01:16 43.27752 -75.51983 3937 ft 210 kts 295°
2026-05-06 01:16 43.28592 -75.54351 3982 ft 262 kts 295°
2026-05-06 01:16 43.29539 -75.57010 3976 ft 264 kts 295°
2026-05-06 01:17 43.30478 -75.59648 3984 ft 261 kts 295°
2026-05-06 01:17 43.31413 -75.62274 3988 ft 259 kts 294°
2026-05-06 01:17 43.32347 -75.64909 4271 ft 281 kts 294°
2026-05-06 01:17 43.33248 -75.67451 5831 ft 276 kts 294°
2026-05-06 01:18 43.34159 -75.70044 7244 ft 275 kts 294°
2026-05-06 01:18 43.35051 -75.72549 8520 ft 273 kts 293°
2026-05-06 01:18 43.35959 -75.75125 9650 ft 277 kts 293°
2026-05-06 01:18 43.36906 -75.77825 10519 ft 288 kts 292°
2026-05-06 01:19 43.37963 -75.80836 10835 ft 320 kts 292°
2026-05-06 01:19 43.39118 -75.84121 11519 ft 337 kts 291°
2026-05-06 01:19 43.40321 -75.87542 11919 ft 345 kts 291°
2026-05-06 01:19 43.41559 -75.91045 11998 ft 343 kts 291°
2026-05-06 01:20 43.42836 -75.94446 11989 ft 338 kts 293°
2026-05-06 01:20 43.44134 -75.97691 11984 ft 335 kts 293°
2026-05-06 01:20 43.45418 -76.00899 12020 ft 339 kts 293°
2026-05-06 01:20 43.46753 -76.04251 12707 ft 353 kts 292°
2026-05-06 01:21 43.48140 -76.07729 13812 ft 353 kts 292°
2026-05-06 01:21 43.49511 -76.11169 14888 ft 352 kts 292°
2026-05-06 01:21 43.50905 -76.14679 15758 ft 356 kts 292°
2026-05-06 01:21 43.52313 -76.18233 16623 ft 360 kts 292°
2026-05-06 01:22 43.53716 -76.21780 17471 ft 363 kts 292°
2026-05-06 01:22 43.55118 -76.25330 18294 ft 366 kts 292°
2026-05-06 01:22 43.56535 -76.28923 19077 ft 370 kts 292°
2026-05-06 01:22 43.57950 -76.32516 19810 ft 374 kts 292°
2026-05-06 01:23 43.59368 -76.36123 20518 ft 377 kts 292°
2026-05-06 01:23 43.60817 -76.39816 21209 ft 381 kts 292°
2026-05-06 01:23 43.62272 -76.43528 21843 ft 384 kts 292°
2026-05-06 01:23 43.63746 -76.47295 22452 ft 388 kts 292°
2026-05-06 01:24 43.65239 -76.51117 23046 ft 392 kts 292°
2026-05-06 01:24 43.66755 -76.55000 23623 ft 396 kts 292°
2026-05-06 01:24 43.68251 -76.58839 24179 ft 399 kts 292°
2026-05-06 01:24 43.69788 -76.62790 24740 ft 403 kts 292°
2026-05-06 01:25 43.71320 -76.66732 25301 ft 406 kts 291°
2026-05-06 01:25 43.72871 -76.70737 25914 ft 407 kts 290°
2026-05-06 01:25 43.74187 -76.74927 26502 ft 405 kts 285°
2026-05-06 01:25 43.75402 -76.79150 27060 ft 407 kts 285°
2026-05-06 01:26 43.76619 -76.83392 27600 ft 409 kts 285°
2026-05-06 01:26 43.77840 -76.87661 28130 ft 411 kts 285°
2026-05-06 01:26 43.79081 -76.92004 28650 ft 412 kts 285°
2026-05-06 01:26 43.80320 -76.96350 29134 ft 414 kts 285°
2026-05-06 01:27 43.81587 -77.00798 29647 ft 414 kts 285°
2026-05-06 01:27 43.82819 -77.05135 30247 ft 411 kts 285°
2026-05-06 01:27 43.84047 -77.09461 30888 ft 407 kts 285°
2026-05-06 01:27 43.85265 -77.13758 31535 ft 402 kts 285°
2026-05-06 01:28 43.86439 -77.17911 32147 ft 398 kts 285°
2026-05-06 01:28 43.87645 -77.22028 32750 ft 396 kts 289°
2026-05-06 01:28 43.89183 -77.25926 33343 ft 400 kts 296°
2026-05-06 01:28 43.91085 -77.29480 33876 ft 405 kts 302°
2026-05-06 01:29 43.93375 -77.32763 34067 ft 421 kts 310°
2026-05-06 01:29 43.96166 -77.35757 34128 ft 440 kts 318°
2026-05-06 01:29 43.99411 -77.38230 34089 ft 458 kts 326°
2026-05-06 01:29 44.02927 -77.40332 33951 ft 462 kts 328°
2026-05-06 01:30 44.09843 -77.44357 33849 ft 463 kts 328°
2026-05-06 01:30 44.16935 -77.48378 33876 ft 462 kts 328°
2026-05-06 01:31 44.24099 -77.52287 33871 ft 470 kts 329°
2026-05-06 01:31 44.31388 -77.56069 34040 ft 471 kts 332°
2026-05-06 01:32 44.35059 -77.57488 34560 ft 467 kts 336°
2026-05-06 01:32 44.38762 -77.58520 34757 ft 472 kts 341°
2026-05-06 01:32 44.46374 -77.60059 34869 ft 481 kts 342°
2026-05-06 01:33 44.53934 -77.61567 34855 ft 488 kts 342°
2026-05-06 01:33 44.61666 -77.63100 34846 ft 483 kts 341°
2026-05-06 01:34 44.69217 -77.64603 34854 ft 483 kts 341°
2026-05-06 01:34 44.77092 -77.66181 34857 ft 488 kts 340°
2026-05-06 01:35 44.84979 -77.67762 34847 ft 488 kts 340°
2026-05-06 01:35 44.92816 -77.69334 34851 ft 487 kts 340°
2026-05-06 01:36 45.00740 -77.70931 34851 ft 488 kts 340°
2026-05-06 01:36 45.08674 -77.72534 34847 ft 490 kts 340°
2026-05-06 01:37 45.16580 -77.74136 34841 ft 490 kts 339°
2026-05-06 01:37 45.24476 -77.75741 34837 ft 492 kts 339°
2026-05-06 01:38 45.32469 -77.77371 34833 ft 495 kts 339°
2026-05-06 01:38 45.40449 -77.79002 34829 ft 496 kts 338°
2026-05-06 01:39 45.48512 -77.80653 34825 ft 497 kts 338°
2026-05-06 01:39 45.56428 -77.82279 34822 ft 497 kts 338°
2026-05-06 01:40 45.64643 -77.83356 34818 ft 515 kts 346°
2026-05-06 01:40 45.73102 -77.83334 34814 ft 517 kts 347°
2026-05-06 01:41 45.90362 -77.83263 34814 ft 519 kts 346°
2026-05-06 01:42 45.98904 -77.83227 34812 ft 520 kts 346°
2026-05-06 01:42 46.07349 -77.83188 34809 ft 521 kts 346°
2026-05-06 01:43 46.15836 -77.83147 34805 ft 520 kts 346°
2026-05-06 01:43 46.24305 -77.83106 34802 ft 521 kts 346°
2026-05-06 01:44 46.32682 -77.83067 34801 ft 521 kts 346°
2026-05-06 01:44 46.41221 -77.83025 34795 ft 521 kts 346°
2026-05-06 01:45 46.49744 -77.82983 34786 ft 521 kts 346°
2026-05-06 01:45 46.58376 -77.82940 34779 ft 521 kts 347°
2026-05-06 01:46 46.67014 -77.82896 34771 ft 521 kts 347°
2026-05-06 01:46 46.75672 -77.82853 34768 ft 520 kts 347°
2026-05-06 01:47 46.84184 -77.82809 34762 ft 520 kts 347°
2026-05-06 01:47 46.92823 -77.82765 34758 ft 520 kts 348°
2026-05-06 01:48 47.01392 -77.82722 34752 ft 520 kts 348°
2026-05-06 01:48 47.09927 -77.82677 34745 ft 519 kts 349°
2026-05-06 01:49 47.18456 -77.82633 34750 ft 519 kts 349°
2026-05-06 01:49 47.26931 -77.82590 34751 ft 519 kts 349°
2026-05-06 01:50 47.35365 -77.82546 34745 ft 519 kts 350°
2026-05-06 01:50 47.43772 -77.82503 34744 ft 519 kts 350°
2026-05-06 01:51 47.52003 -77.82459 34737 ft 518 kts 351°
2026-05-06 01:51 47.60350 -77.82415 34733 ft 518 kts 351°
2026-05-06 01:52 47.68630 -77.82371 34732 ft 517 kts 351°
2026-05-06 01:52 47.76853 -77.82327 34727 ft 517 kts 351°
2026-05-06 01:53 47.85055 -77.82283 34725 ft 517 kts 352°
2026-05-06 01:53 47.93238 -77.82240 34722 ft 517 kts 352°
2026-05-06 01:54 48.01294 -77.82196 34720 ft 517 kts 352°
2026-05-06 01:54 48.09430 -77.82152 34720 ft 517 kts 352°
2026-05-06 01:55 48.17526 -77.82094 34720 ft 517 kts 353°
2026-05-06 01:55 48.25734 -77.81704 34721 ft 518 kts 354°
2026-05-06 01:56 48.33847 -77.81295 34720 ft 518 kts 354°
2026-05-06 01:56 48.42000 -77.80883 34718 ft 518 kts 354°
2026-05-06 01:57 48.50119 -77.80471 34717 ft 518 kts 354°
2026-05-06 01:57 48.58302 -77.80055 34715 ft 518 kts 354°
2026-05-06 01:58 48.66468 -77.79639 34713 ft 518 kts 354°
2026-05-06 01:58 48.74687 -77.79218 34710 ft 518 kts 354°
2026-05-06 01:59 48.82930 -77.78795 34706 ft 518 kts 355°
2026-05-06 01:59 48.91125 -77.78373 34704 ft 518 kts 355°
2026-05-06 02:00 48.99362 -77.77948 34698 ft 518 kts 355°
2026-05-06 02:00 49.07612 -77.77521 34690 ft 518 kts 355°
2026-05-06 02:01 49.15696 -77.77105 34684 ft 518 kts 356°
2026-05-06 02:01 49.23800 -77.76686 34679 ft 518 kts 356°
2026-05-06 02:02 49.32043 -77.76260 34672 ft 517 kts 356°
2026-05-06 02:02 49.40285 -77.75832 34666 ft 517 kts 356°
2026-05-06 02:03 49.48364 -77.75411 34663 ft 516 kts 356°
2026-05-06 02:03 49.56463 -77.74987 34662 ft 516 kts 357°
2026-05-06 02:04 49.64590 -77.74561 34661 ft 516 kts 357°
2026-05-06 02:04 49.72701 -77.74155 34660 ft 515 kts 356°
2026-05-06 02:05 49.80919 -77.74068 34659 ft 514 kts 356°
2026-05-06 02:05 49.89151 -77.73994 34658 ft 514 kts 356°
2026-05-06 02:06 49.97295 -77.73920 34659 ft 513 kts 356°
2026-05-06 02:06 50.05598 -77.73845 34658 ft 513 kts 356°
2026-05-06 02:07 50.13750 -77.73771 34657 ft 512 kts 356°
2026-05-06 02:07 50.21995 -77.73697 34656 ft 512 kts 356°
2026-05-06 02:08 50.30176 -77.73622 34657 ft 512 kts 356°
2026-05-06 02:08 50.38339 -77.73547 34655 ft 513 kts 356°
2026-05-06 02:09 50.46549 -77.73472 34653 ft 513 kts 356°
2026-05-06 02:09 50.54772 -77.73397 34651 ft 513 kts 356°
2026-05-06 02:10 50.63055 -77.73321 34649 ft 513 kts 356°
2026-05-06 02:10 50.71336 -77.73244 34646 ft 513 kts 356°
2026-05-06 02:11 50.79485 -77.73169 34643 ft 513 kts 356°
2026-05-06 02:11 50.87771 -77.73090 34640 ft 513 kts 356°
2026-05-06 02:12 50.95985 -77.73015 34637 ft 513 kts 356°
2026-05-06 02:12 51.04126 -77.72940 34628 ft 513 kts 357°
2026-05-06 02:13 51.12314 -77.72864 34618 ft 513 kts 357°
2026-05-06 02:13 51.20496 -77.72787 34601 ft 513 kts 357°
2026-05-06 02:14 51.28640 -77.72712 34592 ft 513 kts 357°
2026-05-06 02:14 51.36824 -77.72635 34590 ft 512 kts 357°
2026-05-06 02:15 51.45049 -77.72559 34590 ft 512 kts 358°
2026-05-06 02:15 51.53427 -77.72480 34592 ft 512 kts 358°
2026-05-06 02:16 51.61814 -77.72401 34585 ft 512 kts 358°
2026-05-06 02:16 51.70245 -77.72321 34579 ft 512 kts 358°
2026-05-06 02:17 51.78685 -77.72242 34571 ft 512 kts 358°
2026-05-06 02:17 51.87094 -77.72163 34565 ft 511 kts 358°
2026-05-06 02:18 51.95512 -77.72083 34559 ft 511 kts 358°
2026-05-06 02:18 52.03911 -77.72004 34553 ft 511 kts 358°
2026-05-06 02:19 52.12255 -77.71925 34548 ft 510 kts 358°
2026-05-06 02:19 52.20540 -77.71845 34544 ft 510 kts 358°
2026-05-06 02:20 52.33107 -77.71725 34535 ft 510 kts 358°
2026-05-06 02:21 52.41499 -77.71645 34530 ft 510 kts 358°
2026-05-06 02:21 52.49848 -77.71564 34523 ft 510 kts 358°
2026-05-06 02:22 52.58057 -77.71485 34519 ft 510 kts 358°
2026-05-06 02:22 52.66346 -77.71405 34515 ft 510 kts 358°
2026-05-06 02:23 52.74596 -77.71326 34511 ft 510 kts 359°
2026-05-06 02:23 52.82835 -77.71246 34511 ft 510 kts 359°
2026-05-06 02:24 52.91267 -77.71163 34526 ft 509 kts 359°
2026-05-06 02:24 52.99636 -77.71080 34527 ft 509 kts 359°
2026-05-06 02:25 53.08079 -77.70997 34524 ft 509 kts 359°
2026-05-06 02:25 53.16396 -77.70915 34522 ft 508 kts 359°
2026-05-06 02:26 53.24611 -77.70834 34520 ft 508 kts 359°
2026-05-06 02:26 53.33062 -77.70750 34518 ft 508 kts 359°
2026-05-06 02:27 53.41404 -77.70667 34517 ft 507 kts 359°
2026-05-06 02:27 53.49658 -77.70586 34515 ft 507 kts 360°
2026-05-06 02:27 53.53885 -77.70544 34811 ft 500 kts 360°
2026-05-06 02:28 53.57949 -77.70503 35435 ft 486 kts 360°
2026-05-06 02:28 53.61887 -77.70465 35961 ft 475 kts 359°
2026-05-06 02:28 53.65767 -77.70558 36307 ft 470 kts 358°
2026-05-06 02:28 53.69595 -77.70697 36484 ft 470 kts 358°
2026-05-06 02:29 53.73502 -77.70840 36504 ft 474 kts 358°
2026-05-06 02:29 53.81375 -77.71130 36511 ft 481 kts 358°
2026-05-06 02:30 53.89297 -77.71419 36513 ft 487 kts 358°
2026-05-06 02:30 53.97390 -77.71715 36513 ft 493 kts 358°
2026-05-06 02:31 54.05449 -77.72011 36513 ft 497 kts 358°
2026-05-06 02:31 54.13623 -77.72312 36512 ft 501 kts 358°
2026-05-06 02:32 54.21945 -77.72617 36510 ft 504 kts 358°
2026-05-06 02:32 54.30150 -77.72921 36511 ft 505 kts 358°
2026-05-06 02:33 54.38370 -77.73228 36512 ft 505 kts 358°
2026-05-06 02:33 54.41161 -77.73332 36512 ft 505 kts 358°
2026-05-06 02:34 54.55001 -77.73851 36510 ft 505 kts 358°
2026-05-06 02:34 54.63190 -77.74158 36503 ft 505 kts 359°
2026-05-06 02:35 54.71394 -77.74467 36486 ft 504 kts 359°
2026-05-06 02:35 54.79647 -77.74779 36482 ft 504 kts 359°
2026-05-06 02:36 54.87781 -77.75088 36480 ft 503 kts 359°
2026-05-06 02:36 54.96040 -77.75402 36480 ft 503 kts 359°
2026-05-06 02:37 55.04149 -77.75713 36480 ft 503 kts 359°
2026-05-06 02:37 55.12268 -77.76025 36483 ft 502 kts 359°
2026-05-06 02:38 55.20376 -77.76337 36485 ft 501 kts 359°
2026-05-06 02:38 55.28708 -77.76617 36487 ft 501 kts
2026-05-06 02:39 55.36760 -77.75975 36492 ft 500 kts
2026-05-06 02:39 55.44854 -77.75264 36497 ft 500 kts
2026-05-06 02:40 55.52922 -77.74556 36501 ft 499 kts
2026-05-06 02:40 55.60934 -77.73853 36501 ft 499 kts
2026-05-06 02:41 55.68772 -77.73164 36500 ft 498 kts
2026-05-06 02:41 55.76911 -77.72447 36500 ft 498 kts
2026-05-06 02:42 55.85049 -77.71728 36499 ft 497 kts
2026-05-06 02:42 55.92581 -77.71060 36499 ft 497 kts
2026-05-06 02:43 56.00134 -77.70388 36499 ft 497 kts
2026-05-06 02:43 56.07869 -77.69698 36498 ft 497 kts
2026-05-06 02:44 56.15724 -77.68993 36498 ft 497 kts
2026-05-06 02:44 56.23753 -77.68272 36497 ft 497 kts
2026-05-06 02:45 56.31732 -77.67551 36497 ft 496 kts
2026-05-06 02:45 56.39769 -77.66822 36496 ft 496 kts
2026-05-06 02:46 56.47671 -77.66102 36495 ft 496 kts
2026-05-06 02:46 56.55051 -77.65426 36495 ft 496 kts
2026-05-06 02:47 56.62047 -77.64784 36501 ft 496 kts
2026-05-06 02:47 56.68962 -77.64145 36505 ft 496 kts
2026-05-06 02:48 56.75897 -77.63502 36500 ft 496 kts
2026-05-06 02:48 56.82830 -77.62858 36497 ft 496 kts
2026-05-06 02:49 56.89804 -77.62207 36496 ft 496 kts
2026-05-06 02:49 56.96748 -77.61556 36494 ft 496 kts
2026-05-06 02:50 57.03664 -77.60905 36493 ft 496 kts
2026-05-06 02:50 57.10598 -77.60250 36492 ft 495 kts
2026-05-06 02:51 57.17479 -77.59597 36492 ft 495 kts
2026-05-06 02:51 57.24426 -77.58935 36492 ft 495 kts
2026-05-06 02:52 57.31365 -77.58272 36491 ft 495 kts
2026-05-06 02:52 57.38346 -77.57601 36487 ft 494 kts
2026-05-06 02:53 57.45217 -77.56939 36480 ft 494 kts
2026-05-06 02:53 57.52168 -77.56266 36474 ft 494 kts
2026-05-06 02:54 57.59053 -77.55596 36474 ft 493 kts
2026-05-06 02:54 57.65956 -77.54923 36473 ft 493 kts
2026-05-06 02:55 57.72867 -77.54245 36472 ft 493 kts
2026-05-06 02:55 57.79739 -77.53568 36470 ft 493 kts
2026-05-06 02:56 57.86650 -77.52885 36469 ft 493 kts
2026-05-06 02:56 57.93668 -77.52189 36468 ft 492 kts
2026-05-06 02:57 58.00625 -77.51495 36467 ft 492 kts
2026-05-06 02:57 58.07844 -77.50773 36466 ft 492 kts
2026-05-06 02:58 58.15110 -77.50043 36463 ft 492 kts
2026-05-06 02:58 58.22373 -77.49309 36461 ft 492 kts
2026-05-06 02:59 58.29562 -77.48581 36460 ft 492 kts
2026-05-06 02:59 58.36726 -77.47852 36459 ft 492 kts
2026-05-06 03:00 58.43771 -77.47131 36458 ft 492 kts
2026-05-06 03:00 58.50990 -77.46390 36458 ft 492 kts
2026-05-06 03:01 58.58023 -77.45664 36457 ft 492 kts
2026-05-06 03:01 58.65097 -77.44931 36457 ft 492 kts
2026-05-06 03:02 58.72295 -77.44183 36456 ft 492 kts
2026-05-06 03:02 58.79392 -77.43442 36456 ft 492 kts
2026-05-06 03:03 58.86612 -77.42685 36456 ft 493 kts
2026-05-06 03:03 58.93818 -77.41926 36456 ft 493 kts
2026-05-06 03:04 59.00986 -77.41167 36457 ft 493 kts
2026-05-06 03:04 59.08509 -77.40369 36461 ft 493 kts
2026-05-06 03:05 59.15714 -77.39601 36448 ft 492 kts
2026-05-06 03:05 59.22733 -77.38848 36458 ft 492 kts
2026-05-06 03:06 59.29978 -77.38068 36469 ft 494 kts
2026-05-06 03:06 59.37050 -77.37303 36463 ft 496 kts
2026-05-06 03:07 59.44097 -77.36540 36464 ft 495 kts
2026-05-06 03:07 59.51141 -77.35771 36466 ft 495 kts
2026-05-06 03:08 59.58147 -77.35004 36468 ft 495 kts
2026-05-06 03:08 59.65121 -77.34238 36469 ft 494 kts
2026-05-06 03:09 59.72148 -77.33462 36472 ft 494 kts
2026-05-06 03:09 59.79145 -77.32686 36473 ft 494 kts
2026-05-06 03:10 59.86239 -77.31897 36474 ft 494 kts
2026-05-06 03:10 59.93196 -77.31119 36475 ft 494 kts
2026-05-06 03:11 60.00718 -77.30276 36475 ft 494 kts
2026-05-06 03:11 60.08696 -77.29303 36476 ft 493 kts
2026-05-06 03:12 60.16730 -77.28130 36473 ft 493 kts
2026-05-06 03:12 60.24826 -77.26944 36470 ft 493 kts
2026-05-06 03:13 60.32966 -77.25745 36473 ft 493 kts
2026-05-06 03:13 60.41059 -77.24548 36476 ft 493 kts
2026-05-06 03:14 60.49153 -77.23344 36479 ft 493 kts
2026-05-06 03:14 60.57348 -77.22120 36479 ft 493 kts
2026-05-06 03:15 60.65468 -77.20903 36478 ft 493 kts
2026-05-06 03:15 60.73641 -77.19672 36473 ft 493 kts
2026-05-06 03:16 60.81826 -77.18434 36470 ft 493 kts
2026-05-06 03:16 60.90021 -77.17188 36468 ft 493 kts
2026-05-06 03:17 60.98183 -77.15941 36468 ft 493 kts
2026-05-06 03:17 61.06292 -77.14696 36470 ft 493 kts
2026-05-06 03:18 61.14398 -77.13444 36472 ft 493 kts
2026-05-06 03:18 61.22516 -77.12185 36472 ft 493 kts
2026-05-06 03:19 61.30735 -77.10904 36482 ft 493 kts
2026-05-06 03:19 61.38899 -77.09624 36502 ft 493 kts
2026-05-06 03:20 61.51154 -77.07696 36533 ft 493 kts
2026-05-06 03:20 61.59309 -77.06400 36538 ft 493 kts
2026-05-06 03:21 61.67484 -77.05096 36551 ft 493 kts
2026-05-06 03:21 61.75633 -77.03790 36561 ft 494 kts
2026-05-06 03:22 61.83769 -77.02480 36566 ft 494 kts
2026-05-06 03:22 61.91861 -77.01170 36572 ft 494 kts
2026-05-06 03:23 62.00021 -76.99837 36578 ft 494 kts
2026-05-06 03:23 62.08035 -76.98280 36574 ft 493 kts
2026-05-06 03:24 62.16095 -76.96684 36592 ft 494 kts
2026-05-06 03:24 62.24115 -76.95077 36584 ft 494 kts
2026-05-06 03:25 62.32182 -76.93478 36596 ft 493 kts
2026-05-06 03:25 62.40234 -76.91853 36609 ft 493 kts
2026-05-06 03:26 62.48176 -76.90241 36626 ft 494 kts
2026-05-06 03:26 62.55806 -76.88691 36647 ft 495 kts
2026-05-06 03:27 62.63450 -76.87149 36667 ft 495 kts 10°
2026-05-06 03:27 62.71117 -76.85566 36688 ft 495 kts
2026-05-06 03:28 62.78596 -76.84019 36702 ft 495 kts 10°
2026-05-06 03:28 62.86106 -76.82476 36705 ft 495 kts
2026-05-06 03:29 62.93597 -76.80923 36714 ft 495 kts 10°
2026-05-06 03:29 63.01111 -76.79352 36709 ft 496 kts 10°
2026-05-06 03:30 63.08991 -76.77688 36713 ft 496 kts 10°
2026-05-06 03:30 63.17088 -76.75972 36720 ft 496 kts 10°
2026-05-06 03:31 63.25154 -76.74258 36729 ft 497 kts 10°
2026-05-06 03:31 63.33112 -76.72570 36722 ft 497 kts 10°
2026-05-06 03:32 63.41076 -76.70873 36722 ft 497 kts 11°
2026-05-06 03:32 63.49028 -76.69150 36723 ft 497 kts 10°
2026-05-06 03:33 63.56916 -76.67423 36730 ft 498 kts 11°
2026-05-06 03:33 63.64748 -76.65716 36736 ft 498 kts 11°
2026-05-06 03:34 63.72353 -76.64075 36749 ft 498 kts 11°
2026-05-06 03:34 63.79979 -76.62421 36744 ft 498 kts 11°
2026-05-06 03:35 63.87408 -76.60767 36891 ft 496 kts 11°
2026-05-06 03:35 63.91179 -76.59930 37434 ft 484 kts 11°
2026-05-06 03:35 63.94962 -76.59080 37971 ft 473 kts 11°
2026-05-06 03:36 63.98725 -76.58221 38342 ft 467 kts 11°
2026-05-06 03:36 64.02350 -76.57391 38559 ft 465 kts 11°
2026-05-06 03:36 64.05988 -76.56573 38716 ft 465 kts 10°
2026-05-06 03:36 64.09624 -76.55748 38739 ft 469 kts 10°
2026-05-06 03:37 64.17327 -76.54039 38733 ft 477 kts
2026-05-06 03:37 64.24847 -76.51166 38744 ft 475 kts 21°
2026-05-06 03:38 64.32226 -76.45267 38736 ft 479 kts 23°
2026-05-06 03:38 64.39648 -76.39240 38727 ft 485 kts 23°
2026-05-06 03:39 64.47133 -76.33102 38735 ft 490 kts 24°
2026-05-06 03:39 64.54754 -76.26843 38725 ft 493 kts 24°
2026-05-06 03:40 64.62402 -76.20525 38734 ft 493 kts 24°
2026-05-06 03:40 64.70087 -76.14158 38737 ft 493 kts 24°
2026-05-06 03:41 64.77387 -76.08072 38739 ft 492 kts 24°
2026-05-06 03:41 64.84533 -76.02090 38743 ft 492 kts 24°
2026-05-06 03:42 64.92191 -75.95628 38746 ft 492 kts 24°
2026-05-06 03:42 64.99814 -75.89145 38750 ft 493 kts 24°
2026-05-06 03:43 65.07487 -75.82582 38755 ft 492 kts 23°
2026-05-06 03:43 65.15025 -75.76096 38768 ft 491 kts 23°
2026-05-06 03:44 65.22620 -75.69515 38775 ft 491 kts 23°
2026-05-06 03:44 65.30101 -75.63007 38781 ft 491 kts 24°
2026-05-06 03:45 65.37683 -75.56377 38790 ft 491 kts 23°
2026-05-06 03:45 65.45170 -75.49771 38796 ft 491 kts 23°
2026-05-06 03:46 65.52581 -75.43208 38802 ft 491 kts 23°
2026-05-06 03:46 65.59956 -75.36622 38809 ft 492 kts 23°
2026-05-06 03:47 65.67377 -75.29968 38820 ft 492 kts 24°
2026-05-06 03:47 65.74889 -75.23186 38827 ft 492 kts 24°
2026-05-06 03:48 65.82497 -75.16278 38836 ft 492 kts 24°
2026-05-06 03:48 65.90115 -75.09320 38841 ft 492 kts 24°
2026-05-06 03:49 65.97704 -75.02351 38853 ft 493 kts 24°
2026-05-06 03:49 66.05266 -74.95187 38860 ft 493 kts 25°
2026-05-06 03:50 66.12762 -74.87975 38876 ft 495 kts 25°
2026-05-06 03:50 66.20315 -74.80643 38869 ft 495 kts 25°
2026-05-06 03:51 66.27950 -74.73182 38884 ft 495 kts 25°
2026-05-06 03:51 66.35510 -74.65746 38901 ft 497 kts 25°
2026-05-06 03:52 66.43171 -74.58166 38923 ft 499 kts 25°
2026-05-06 03:52 66.50890 -74.50480 38936 ft 500 kts 25°
2026-05-06 03:53 66.58543 -74.42806 38944 ft 500 kts 25°
2026-05-06 03:53 66.66127 -74.35155 38934 ft 500 kts 25°
2026-05-06 03:54 66.73667 -74.27496 38927 ft 500 kts 25°
2026-05-06 03:54 66.81296 -74.19694 38940 ft 500 kts 25°
2026-05-06 03:55 66.88803 -74.11964 38950 ft 500 kts 25°
2026-05-06 03:55 66.96223 -74.04274 38959 ft 501 kts 25°
2026-05-06 03:56 67.02904 -73.97477 38969 ft 502 kts 23°
2026-05-06 03:56 67.09585 -73.91373 38977 ft 502 kts 22°
2026-05-06 03:57 67.16345 -73.85190 38987 ft 503 kts 22°
2026-05-06 03:57 67.23101 -73.78961 38996 ft 503 kts 21°
2026-05-06 03:58 67.29853 -73.72693 39007 ft 503 kts 21°
2026-05-06 03:58 67.36593 -73.66395 39012 ft 504 kts 21°
2026-05-06 03:59 67.43284 -73.60090 39024 ft 504 kts 21°
2026-05-06 03:59 67.50017 -73.53705 39032 ft 504 kts 21°
2026-05-06 04:00 67.57780 -73.46277 39047 ft 504 kts 21°
2026-05-06 04:00 67.65709 -73.38663 39059 ft 505 kts 21°
2026-05-06 04:01 67.73484 -73.31132 39070 ft 504 kts 22°
2026-05-06 04:01 67.81401 -73.23403 39077 ft 504 kts 22°
2026-05-06 04:02 67.89166 -73.15759 39094 ft 504 kts 21°
2026-05-06 04:02 67.96954 -73.08028 39123 ft 504 kts 22°
2026-05-06 04:03 68.04756 -73.00236 39156 ft 504 kts 22°
2026-05-06 04:03 68.12382 -72.92564 39209 ft 504 kts 21°
2026-05-06 04:04 68.20011 -72.84852 39229 ft 506 kts 21°
2026-05-06 04:04 68.27760 -72.76945 39235 ft 507 kts 21°
2026-05-06 04:05 68.35508 -72.68973 39229 ft 506 kts 21°
2026-05-06 04:05 68.43234 -72.60981 39224 ft 507 kts 21°
2026-05-06 04:06 68.50880 -72.52992 39223 ft 507 kts 21°
2026-05-06 04:06 68.58527 -72.44961 39221 ft 507 kts 21°
2026-05-06 04:07 68.66168 -72.36880 39223 ft 507 kts 21°
2026-05-06 04:07 68.73698 -72.28846 39228 ft 507 kts 21°
2026-05-06 04:08 68.81310 -72.20673 39225 ft 508 kts 22°
2026-05-06 04:08 68.88901 -72.12431 39229 ft 508 kts 21°
2026-05-06 04:09 68.96467 -72.04175 39240 ft 508 kts 21°
2026-05-06 04:09 69.04085 -71.96186 39251 ft 508 kts 19°
2026-05-06 04:10 69.11755 -71.88877 39255 ft 509 kts 18°
2026-05-06 04:10 69.19488 -71.81430 39248 ft 508 kts 18°
2026-05-06 04:11 69.27205 -71.73931 39241 ft 507 kts 18°
2026-05-06 04:11 69.34871 -71.66415 39248 ft 507 kts 18°
2026-05-06 04:12 69.42512 -71.58870 39258 ft 508 kts 18°
2026-05-06 04:12 69.50195 -71.51224 39267 ft 509 kts 18°
2026-05-06 04:13 69.57842 -71.43548 39257 ft 509 kts 18°
2026-05-06 04:13 69.65524 -71.35758 39258 ft 509 kts 18°
2026-05-06 04:14 69.73061 -71.28062 39268 ft 509 kts 19°
2026-05-06 04:14 69.80711 -71.20193 39284 ft 509 kts 18°
2026-05-06 04:15 69.88167 -71.12453 39276 ft 510 kts 19°
2026-05-06 04:15 69.95606 -71.04690 39259 ft 510 kts 18°
2026-05-06 04:16 70.03323 -70.98487 39239 ft 506 kts
2026-05-06 04:16 70.11024 -70.94993 39232 ft 506 kts
2026-05-06 04:17 70.18534 -70.91538 39221 ft 504 kts
2026-05-06 04:17 70.25907 -70.88125 39213 ft 505 kts
2026-05-06 04:18 70.33227 -70.84714 39218 ft 509 kts
2026-05-06 04:18 70.40592 -70.81261 39213 ft 509 kts
2026-05-06 04:19 70.48136 -70.77696 39211 ft 507 kts
2026-05-06 04:19 70.55644 -70.74120 39235 ft 506 kts
2026-05-06 04:20 70.63004 -70.70590 39320 ft 505 kts
2026-05-06 04:20 70.70218 -70.67092 39398 ft 506 kts
2026-05-06 04:21 70.77406 -70.63608 39470 ft 507 kts
2026-05-06 04:21 70.84454 -70.60159 39441 ft 508 kts
2026-05-06 04:22 70.91543 -70.56643 39409 ft 507 kts
2026-05-06 04:23 71.02103 -70.51377 39357 ft 507 kts
2026-05-06 04:23 71.09081 -70.47861 39315 ft 508 kts
2026-05-06 04:24 71.15990 -70.44350 39311 ft 507 kts
2026-05-06 04:24 71.23003 -70.40745 39313 ft 508 kts
2026-05-06 04:25 71.30040 -70.37098 39317 ft 508 kts
2026-05-06 04:25 71.37066 -70.33501 39304 ft 509 kts
2026-05-06 04:26 71.44250 -70.29742 39308 ft 509 kts
2026-05-06 04:26 71.51477 -70.25931 39307 ft 509 kts
2026-05-06 04:27 71.58524 -70.22177 39320 ft 509 kts
2026-05-06 04:27 71.66432 -70.17954 39306 ft 510 kts
2026-05-06 04:28 71.74289 -70.13728 39311 ft 510 kts
2026-05-06 04:28 71.82056 -70.09531 39312 ft 510 kts
2026-05-06 04:29 71.89932 -70.05216 39304 ft 511 kts
2026-05-06 04:29 71.97839 -70.00834 39305 ft 511 kts
2026-05-06 04:30 72.05535 -69.97083 39308 ft 510 kts
2026-05-06 04:30 72.13251 -69.93594 39302 ft 510 kts
2026-05-06 04:31 72.21261 -69.89945 39308 ft 509 kts
2026-05-06 04:31 72.29434 -69.86220 39298 ft 509 kts
2026-05-06 04:32 72.37677 -69.82425 39303 ft 509 kts
2026-05-06 04:32 72.45756 -69.78676 39298 ft 509 kts
2026-05-06 04:33 72.53915 -69.74823 39297 ft 510 kts
2026-05-06 04:33 72.62025 -69.70971 39304 ft 509 kts
2026-05-06 04:34 72.70015 -69.67092 39296 ft 510 kts
2026-05-06 04:34 72.78185 -69.63158 39302 ft 509 kts
2026-05-06 04:35 72.86298 -69.59199 39304 ft 509 kts
2026-05-06 04:35 72.94385 -69.55167 39309 ft 508 kts
2026-05-06 04:36 73.02600 -69.51105 39321 ft 508 kts
2026-05-06 04:36 73.10741 -69.47027 39328 ft 508 kts
2026-05-06 04:37 73.18960 -69.42905 39335 ft 508 kts
2026-05-06 04:37 73.27198 -69.38667 39331 ft 508 kts
2026-05-06 04:38 73.35342 -69.34427 39327 ft 508 kts
2026-05-06 04:38 73.43352 -69.30250 39328 ft 508 kts
2026-05-06 04:39 73.51558 -69.25879 39332 ft 508 kts
2026-05-06 04:39 73.59663 -69.21545 39332 ft 508 kts
2026-05-06 04:40 73.67868 -69.17133 39332 ft 508 kts
2026-05-06 04:40 73.76130 -69.12640 39332 ft 508 kts
2026-05-06 04:41 73.84139 -69.08243 39335 ft 507 kts
2026-05-06 04:41 73.92116 -69.03845 39334 ft 507 kts
2026-05-06 04:42 73.99926 -68.99565 39337 ft 506 kts
2026-05-06 04:42 74.07866 -68.97373 39334 ft 504 kts
2026-05-06 04:43 74.15921 -68.95364 39342 ft 504 kts
2026-05-06 04:43 74.24174 -68.93246 39340 ft 504 kts
2026-05-06 04:44 74.32252 -68.91146 39336 ft 504 kts
2026-05-06 04:44 74.40576 -68.88926 39341 ft 504 kts
2026-05-06 04:45 74.48750 -68.86787 39341 ft 504 kts
2026-05-06 04:45 74.57071 -68.84557 39337 ft 504 kts
2026-05-06 04:46 74.65337 -68.82306 39342 ft 504 kts
2026-05-06 04:46 74.73498 -68.80102 38787 ft 502 kts
2026-05-06 04:46 74.77558 -68.78965 38151 ft 491 kts
2026-05-06 04:47 74.81519 -68.77850 37513 ft 482 kts
2026-05-06 04:47 74.85320 -68.76778 36858 ft 475 kts
2026-05-06 04:47 74.89024 -68.75728 36200 ft 469 kts
2026-05-06 04:47 74.92730 -68.74674 35513 ft 464 kts 360°
2026-05-06 04:48 74.96323 -68.73651 34832 ft 462 kts 359°
2026-05-06 04:48 74.99942 -68.72623 34204 ft 465 kts 359°
2026-05-06 04:48 75.03483 -68.71606 33447 ft 466 kts 359°
2026-05-06 04:48 75.07031 -68.70585 32702 ft 468 kts 358°
2026-05-06 04:49 75.10750 -68.69508 31910 ft 470 kts 358°
2026-05-06 04:49 75.14434 -68.68436 31120 ft 471 kts 358°
2026-05-06 04:49 75.18078 -68.67371 30492 ft 475 kts 358°
2026-05-06 04:49 75.21588 -68.66339 29716 ft 479 kts 358°
2026-05-06 04:50 75.25032 -68.65315 28919 ft 476 kts 358°
2026-05-06 04:50 75.28486 -68.64279 28093 ft 472 kts 358°
2026-05-06 04:50 75.31947 -68.63236 27263 ft 467 kts 359°
2026-05-06 04:50 75.35512 -68.62158 26585 ft 456 kts 359°
2026-05-06 04:51 75.38993 -68.61095 26297 ft 445 kts 359°
2026-05-06 04:51 75.42410 -68.60068 26206 ft 449 kts 359°
2026-05-06 04:51 75.45847 -68.59032 26159 ft 452 kts 359°
2026-05-06 04:51 75.49387 -68.57955 26214 ft 454 kts 360°
2026-05-06 04:52 75.52952 -68.56866 26317 ft 457 kts 360°
2026-05-06 04:52 75.56222 -68.55861 26359 ft 458 kts 360°
2026-05-06 04:52 75.59556 -68.54829 26368 ft 458 kts 360°
2026-05-06 04:52 75.62954 -68.53772 26372 ft 457 kts
2026-05-06 04:53 75.66295 -68.52729 26371 ft 457 kts
2026-05-06 04:53 75.69628 -68.51684 26371 ft 456 kts
2026-05-06 04:53 75.72924 -68.50647 26371 ft 455 kts
2026-05-06 04:53 75.76433 -68.49537 26368 ft 455 kts
2026-05-06 04:54 75.79861 -68.48448 26371 ft 454 kts
2026-05-06 04:54 75.83290 -68.47354 26373 ft 454 kts
2026-05-06 04:54 75.86649 -68.46276 26374 ft 454 kts
2026-05-06 04:54 75.89934 -68.45218 26374 ft 454 kts
2026-05-06 04:55 75.93240 -68.44147 26373 ft 454 kts
2026-05-06 04:55 75.96540 -68.43074 26373 ft 454 kts
2026-05-06 04:55 75.99939 -68.41963 26373 ft 454 kts
2026-05-06 04:55 76.03346 -68.40845 26359 ft 454 kts
2026-05-06 04:56 76.06759 -68.39719 26334 ft 454 kts
2026-05-06 04:56 76.10134 -68.38602 26311 ft 453 kts
2026-05-06 04:56 76.13557 -68.37461 26289 ft 453 kts
2026-05-06 04:56 76.17143 -68.36262 26265 ft 453 kts
2026-05-06 04:57 76.20791 -68.35036 26241 ft 452 kts
2026-05-06 04:57 76.24322 -68.33843 26207 ft 453 kts
2026-05-06 04:57 76.27742 -68.32683 26171 ft 452 kts
2026-05-06 04:57 76.30998 -68.31571 26205 ft 451 kts
2026-05-06 04:58 76.34344 -68.30424 26231 ft 452 kts
2026-05-06 04:58 76.37565 -68.29315 26243 ft 453 kts
2026-05-06 04:58 76.40924 -68.28152 26249 ft 453 kts
2026-05-06 04:58 76.44277 -68.26973 26055 ft 438 kts
2026-05-06 04:59 76.47448 -68.25847 25313 ft 434 kts
2026-05-06 04:59 76.50566 -68.24747 24228 ft 437 kts
2026-05-06 04:59 76.53660 -68.23706 23515 ft 426 kts
2026-05-06 04:59 76.56690 -68.23494 22844 ft 425 kts 357°
2026-05-06 05:00 76.59663 -68.23498 22266 ft 419 kts 357°
2026-05-06 05:00 76.62634 -68.23493 21659 ft 415 kts 357°
2026-05-06 05:00 76.65579 -68.23490 21115 ft 413 kts 358°
2026-05-06 05:00 76.68478 -68.23489 20554 ft 410 kts 358°
2026-05-06 05:01 76.71358 -68.23486 20004 ft 407 kts 358°
2026-05-06 05:01 76.74150 -68.23483 19480 ft 405 kts 358°
2026-05-06 05:01 76.76962 -68.23479 18924 ft 402 kts 358°
2026-05-06 05:01 76.79762 -68.23476 18328 ft 398 kts 358°
2026-05-06 05:02 76.82507 -68.23904 17753 ft 392 kts 350°
2026-05-06 05:02 76.85096 -68.27052 17105 ft 383 kts 334°
2026-05-06 05:02 76.87302 -68.33028 16493 ft 371 kts 317°
2026-05-06 05:02 76.88972 -68.41419 15995 ft 362 kts 299°
2026-05-06 05:03 76.89912 -68.51516 15556 ft 353 kts 279°
2026-05-06 05:03 76.89866 -68.62114 15209 ft 345 kts 256°
2026-05-06 05:03 76.89199 -68.72352 14809 ft 344 kts 250°
2026-05-06 05:03 76.88393 -68.82146 14417 ft 341 kts 246°
2026-05-06 05:04 76.87445 -68.91682 13923 ft 336 kts 243°
2026-05-06 05:04 76.86374 -69.00764 13385 ft 327 kts 239°
2026-05-06 05:04 76.85209 -69.09249 12929 ft 316 kts 236°
2026-05-06 05:04 76.83964 -69.17168 12427 ft 309 kts 232°
2026-05-06 05:05 76.82641 -69.24571 11982 ft 301 kts 229°
2026-05-06 05:05 76.81252 -69.31450 11527 ft 293 kts 226°
2026-05-06 05:05 76.79820 -69.37771 11077 ft 286 kts 223°
2026-05-06 05:05 76.78362 -69.43520 10654 ft 279 kts 220°
2026-05-06 05:06 76.76866 -69.48806 10242 ft 273 kts 217°
2026-05-06 05:06 76.75320 -69.53690 9853 ft 268 kts 214°
2026-05-06 05:06 76.73719 -69.58187 9479 ft 264 kts 211°
2026-05-06 05:06 76.72059 -69.62337 9118 ft 264 kts 208°
2026-05-06 05:07 76.70246 -69.66317 8529 ft 270 kts 204°
2026-05-06 05:07 76.68512 -69.69610 8148 ft 264 kts 201°
2026-05-06 05:07 76.66741 -69.72501 7731 ft 261 kts 198°
2026-05-06 05:07 76.64841 -69.75108 7326 ft 260 kts 195°
2026-05-06 05:08 76.62938 -69.77235 6951 ft 260 kts 192°
2026-05-06 05:08 76.61018 -69.78908 6573 ft 259 kts 189°
2026-05-06 05:08 76.59088 -69.80126 6196 ft 258 kts 186°
2026-05-06 05:08 76.57211 -69.80875 5826 ft 251 kts 183°
2026-05-06 05:09 76.55456 -69.81192 5463 ft 245 kts 180°
2026-05-06 05:09 76.53780 -69.80411 5147 ft 236 kts 157°
2026-05-06 05:09 76.52564 -69.75767 4870 ft 228 kts 120°
2026-05-06 05:09 76.51855 -69.69391 4534 ft 224 kts 115°
2026-05-06 05:10 76.51318 -69.63001 4119 ft 225 kts 102°
2026-05-06 05:10 76.51224 -69.56233 3693 ft 221 kts 88°
2026-05-06 05:10 76.51348 -69.49945 3448 ft 196 kts 85°
2026-05-06 05:10 76.51487 -69.44042 3380 ft 200 kts 84°
2026-05-06 05:11 76.51625 -69.38080 3204 ft 201 kts 84°
2026-05-06 05:11 76.51763 -69.32182 2895 ft 188 kts 85°
2026-05-06 05:11 76.51889 -69.26729 2579 ft 181 kts 85°
2026-05-06 05:11 76.52010 -69.21328 2267 ft 177 kts 85°
2026-05-06 05:12 76.52127 -69.16078 2004 ft 176 kts 85°
2026-05-06 05:12 76.52244 -69.10809 1742 ft 174 kts 85°
2026-05-06 05:12 76.52359 -69.05552 1484 ft 174 kts 85°
2026-05-06 05:12 76.52476 -69.00223 1219 ft 172 kts 85°
2026-05-06 05:13 76.52586 -68.95058 965 ft 170 kts 85°
2026-05-06 05:13 76.52685 -68.90384 731 ft 137 kts 86°
2026-05-06 05:13 76.52768 -68.86571 584 ft 121 kts 86°
2026-05-06 05:13 76.52851 -68.82969 317 ft 114 kts 87°
2026-05-06 05:14 76.52924 -68.79604 195 ft 113 kts 88°
2026-05-06 05:14 76.52991 -68.76276 -34 ft 109 kts 87°
2026-05-06 05:14 76.53050 -68.73452 -45 ft 80 kts 85°
2026-05-06 05:14 76.53097 -68.71922 -46 ft 24 kts 84°
2026-05-06 05:15 76.53110 -68.71135 -46 ft 28 kts 88°
2026-05-06 05:15 76.53146 -68.70501 -47 ft 12 kts 43°
2026-05-06 05:15 76.53285 -68.70372 -47 ft 34 kts
2026-05-06 05:15 76.53513 -68.70265 -48 ft 21 kts
2026-05-06 05:16 76.53574 -68.70372 -48 ft 6 kts 208°
2026-05-06 05:16 76.53565 -68.70355 -48 ft 0 kts 127°